Powrót do katalogu

ISKRA-MAI-85

AktywnyNaukaSSO
NORAD 42827·PAYLOAD·🇷🇺 Russia
Ta nazwa satelity nie została jeszcze potwierdzona przez oficjalne źródła.

Wystrzelony Jul 14, 2017 z Baikonur Cosmodrome

Loading…

Następne Przeloty (najbliższe 24 godziny)

TLE

ŚwieżeSource: Space-Track

Epoka: Sep 14, 2026, 10:41 UTC

1 42827U 17042C   26257.44579790  .00010907  00000-0  40216-3 0  9997
2 42827  97.4163  72.3049 0009418 116.4433 243.7773 15.27932749501451

Śledź ISKRA-MAI-85 w czasie rzeczywistym z AllMySat

Download on the App Store